This is the latest recevied weather packets stored in our database for station/object PD2BVG. If no packets are shown the sender has not sent any weather packets the latest 1 day(s).
| Time | Temp. | Humidity | Pressure | Rain* | Wind** | Luminosity | Snow |
|---|---|---|---|---|---|---|---|
| 1778030130 | 10° C | 80% | 1010.3 hPa | 0 mm | 2.68 m/s, 336° | 0 W/m² | - |
| 1778030069 | 10° C | 80% | 1010.3 hPa | 0 mm | 2.24 m/s, 357° | 0 W/m² | - |
| 1778030009 | 10° C | 80% | 1010.2 hPa | 0 mm | 2.68 m/s, 351° | 0 W/m² | - |
| 1778029948 | 10° C | 79% | 1010.3 hPa | 0 mm | 3.13 m/s, 341° | 0 W/m² | - |
| 1778029889 | 10° C | 79% | 1010.3 hPa | 0 mm | 3.13 m/s, 329° | 0 W/m² | - |
| 1778029828 | 10° C | 80% | 1010.3 hPa | 0 mm | 3.13 m/s, 0° | 0 W/m² | - |
| 1778029770 | 10° C | 80% | 1010.2 hPa | 0 mm | 3.13 m/s, 343° | 0 W/m² | - |
| 1778029709 | 10° C | 80% | 1010.3 hPa | 0 mm | 2.68 m/s, 0° | 0 W/m² | - |
| 1778029649 | 10° C | 80% | 1010.3 hPa | 0 mm | 2.68 m/s, 345° | 0 W/m² | - |
| 1778029590 | 10° C | 80% | 1010.3 hPa | 0 mm | 3.13 m/s, 0° | 0 W/m² | - |
| 1778029529 | 10° C | 80% | 1010.3 hPa | 0 mm | 3.13 m/s, 351° | 0 W/m² | - |
| 1778029469 | 10° C | 80% | 1010.2 hPa | 0 mm | 3.13 m/s, 344° | 0 W/m² | - |
| 1778029409 | 10° C | 80% | 1010.3 hPa | 0 mm | 3.13 m/s, 353° | 0 W/m² | - |
| 1778029351 | 10° C | 81% | 1010.3 hPa | 0 mm | 3.58 m/s, 334° | 0 W/m² | - |
| 1778029291 | 10° C | 81% | 1010.2 hPa | 0 mm | 3.58 m/s, 343° | 0 W/m² | - |
| 1778029230 | 10° C | 81% | 1010.2 hPa | 0 mm | 3.13 m/s, 0° | 0 W/m² | - |
| 1778029169 | 10° C | 81% | 1010.3 hPa | 0 mm | 2.24 m/s, 306° | 0 W/m² | - |
| 1778029108 | 10° C | 81% | 1010.3 hPa | 0 mm | 2.68 m/s, 351° | 0 W/m² | - |
| 1778029047 | 10° C | 81% | 1010.2 hPa | 0 mm | 3.13 m/s, 329° | 0 W/m² | - |
| 1778028987 | 10° C | 81% | 1010.2 hPa | 0 mm | 3.13 m/s, 0° | 0 W/m² | - |
| 1778028926 | 10° C | 81% | 1010.3 hPa | 0 mm | 2.68 m/s, 345° | 0 W/m² | - |
| 1778028866 | 10° C | 81% | 1010.3 hPa | 0 mm | 3.58 m/s, 353° | 0 W/m² | - |
| 1778028807 | 10° C | 80% | 1010.3 hPa | 0 mm | 3.13 m/s, 350° | 0 W/m² | - |
| 1778028744 | 10° C | 80% | 1010.3 hPa | 0 mm | 2.24 m/s, 357° | 0 W/m² | - |
| 1778028682 | 10° C | 80% | 1010.3 hPa | 0 mm | 2.24 m/s, 0° | 0 W/m² | - |
* Rain latest hour (hover to see other rain measurements)
** Current wind speed in m/s (hover to see current wind gust speed)